| time (UTC) | temp F | wind direction | speed MPH | gust MPH | rain 1hr in | rain 24hr in | rain mn in | humidity % | barometer mb |
| 20260506073209 | 56 | 208 | 1.0 | 7.0 | 0.00 | 0.00 | 0.00 | 57 | 1011.2 |
| 20260506072709 | 56 | 202 | 5.0 | 6.0 | 0.00 | 0.00 | 0.00 | 57 | 1011.3 |
| 20260506072208 | 56 | 200 | 5.0 | 8.0 | 0.00 | 0.00 | 0.00 | 57 | 1011.4 |
| 20260506071708 | 56 | 246 | 4.0 | 8.0 | 0.00 | 0.00 | 0.00 | 57 | 1011.5 |
| 20260506071208 | 56 | 217 | 4.0 | 9.0 | 0.00 | 0.00 | 0.00 | 57 | 1011.4 |
| 20260506070210 | 56 | 171 | 2.0 | 7.0 | 0.00 | 0.00 | 0.00 | 57 | 1011.4 |
| 20260506061209 | 57 | 215 | 3.0 | 7.0 | 0.00 | 0.00 | 0.00 | 59 | 1011.3 |
| 20260506060708 | 57 | 213 | 5.0 | 8.0 | 0.00 | 0.00 | 0.00 | 59 | 1011.2 |
| 20260506060210 | 57 | 216 | 2.0 | 6.0 | 0.00 | 0.00 | 0.00 | 59 | 1011.3 |
| 20260506051209 | 58 | 173 | 3.0 | 9.0 | 0.00 | 0.00 | 0.00 | 59 | 1011.5 |
| 20260506050708 | 58 | 211 | 2.0 | 10.0 | 0.00 | 0.00 | 0.00 | 59 | 1011.4 |
| 20260506050211 | 58 | 265 | 8.0 | 10.0 | 0.00 | 0.00 | 0.00 | 59 | 1011.5 |
| 20260506044711 | 58 | 223 | 4.0 | 11.0 | 0.00 | 0.00 | 0.00 | 59 | 1011.7 |
| 20260506044211 | 58 | 225 | 3.0 | 8.0 | 0.00 | 0.00 | 0.00 | 59 | 1011.7 |
| 20260506043710 | 58 | 194 | 1.0 | 8.0 | 0.00 | 0.00 | 0.00 | 59 | 1011.7 |
| 20260506043211 | 59 | 230 | 6.0 | 12.0 | 0.00 | 0.00 | 0.00 | 59 | 1011.6 |
| 20260506042709 | 59 | 236 | 3.0 | 12.0 | 0.00 | 0.00 | 0.00 | 59 | 1011.5 |
| 20260506041711 | 59 | 215 | 3.0 | 10.0 | 0.00 | 0.00 | 0.00 | 58 | 1011.5 |
| 20260506041210 | 59 | 212 | 1.0 | 11.0 | 0.00 | 0.00 | 0.00 | 58 | 1011.5 |
| 20260506040709 | 59 | 202 | 5.0 | 12.0 | 0.00 | 0.00 | 0.00 | 58 | 1011.5 |
| 20260506040215 | 59 | 266 | 3.0 | 12.0 | 0.00 | 0.00 | 0.00 | 58 | 1011.5 |
| 20260506035210 | 59 | 183 | 2.0 | 10.0 | 0.00 | 0.00 | 0.00 | 58 | 1011.5 |
| 20260506034710 | 60 | 224 | 3.0 | 9.0 | 0.00 | 0.00 | 0.00 | 57 | 1011.6 |
| 20260506034209 | 60 | 211 | 5.0 | 10.0 | 0.00 | 0.00 | 0.00 | 57 | 1011.6 |
| 20260506033710 | 60 | 226 | 1.0 | 9.0 | 0.00 | 0.00 | 0.00 | 57 | 1011.5 |
| 20260506033210 | 60 | 213 | 8.0 | 8.0 | 0.00 | 0.00 | 0.00 | 57 | 1011.5 |
| 20260506032710 | 60 | 227 | 4.0 | 9.0 | 0.00 | 0.00 | 0.00 | 56 | 1011.5 |
| 20260506032210 | 60 | 198 | 0.0 | 10.0 | 0.00 | 0.00 | 0.00 | 56 | 1011.4 |
| 20260506031710 | 60 | 248 | 7.0 | 11.0 | 0.00 | 0.00 | 0.00 | 56 | 1011.4 |
| 20260506031210 | 60 | 202 | 8.0 | 11.0 | 0.00 | 0.00 | 0.00 | 56 | 1011.3 |
| 20260506030710 | 60 | 205 | 8.0 | 10.0 | 0.00 | 0.00 | 0.00 | 56 | 1011.4 |
| 20260506030212 | 60 | 190 | 6.0 | 9.0 | 0.00 | 0.00 | 0.00 | 55 | 1011.5 |
| 20260506025210 | 61 | 230 | 4.0 | 9.0 | 0.00 | 0.00 | 0.00 | 55 | 1011.4 |
| 20260506024711 | 61 | 206 | 3.0 | 11.0 | 0.00 | 0.00 | 0.00 | 55 | 1011.5 |
| 20260506024210 | 61 | 218 | 3.0 | 11.0 | 0.00 | 0.00 | 0.00 | 55 | 1011.4 |
| 20260506023710 | 61 | 217 | 5.0 | 9.0 | 0.00 | 0.00 | 0.00 | 54 | 1011.4 |
| 20260506023211 | 61 | 267 | 2.0 | 10.0 | 0.00 | 0.00 | 0.00 | 54 | 1011.4 |
| 20260506022709 | 61 | 200 | 7.0 | 10.0 | 0.00 | 0.00 | 0.00 | 54 | 1011.3 |
| 20260506022210 | 61 | 233 | 5.0 | 11.0 | 0.00 | 0.00 | 0.00 | 54 | 1011.2 |
| 20260506021211 | 61 | 203 | 2.0 | 10.0 | 0.00 | 0.00 | 0.00 | 54 | 1011.3 |
| 20260506020711 | 61 | 270 | 3.0 | 15.0 | 0.00 | 0.00 | 0.00 | 54 | 1011.1 |
| 20260506020209 | 61 | 232 | 8.0 | 15.0 | 0.00 | 0.00 | 0.00 | 54 | 1011.1 |
| 20260506015709 | 61 | 219 | 7.0 | 10.0 | 0.00 | 0.00 | 0.00 | 54 | 1010.9 |
| 20260506015210 | 62 | 264 | 2.0 | 14.0 | 0.00 | 0.00 | 0.00 | 54 | 1010.9 |
| 20260506014708 | 62 | 209 | 9.0 | 13.0 | 0.00 | 0.00 | 0.00 | 54 | 1010.9 |
| 20260506014209 | 62 | 176 | 7.0 | 17.0 | 0.00 | 0.00 | 0.00 | 54 | 1010.8 |
| 20260506013708 | 62 | 225 | 5.0 | 13.0 | 0.00 | 0.00 | 0.00 | 54 | 1010.7 |
| 20260506013209 | 61 | 252 | 4.0 | 14.0 | 0.00 | 0.00 | 0.00 | 54 | 1010.7 |
| 20260506012709 | 61 | 205 | 3.0 | 10.0 | 0.00 | 0.00 | 0.00 | 54 | 1010.5 |
| 20260506012210 | 62 | 289 | 2.0 | 8.0 | 0.00 | 0.00 | 0.00 | 53 | 1010.6 |
| 20260506010709 | 62 | 232 | 5.0 | 11.0 | 0.00 | 0.00 | 0.00 | 53 | 1010.4 |
| 20260506010210 | 63 | 229 | 6.0 | 14.0 | 0.00 | 0.00 | 0.00 | 52 | 1010.2 |
| 20260506005709 | 63 | 201 | 6.0 | 14.0 | 0.00 | 0.00 | 0.00 | 52 | 1010.1 |
| 20260506005209 | 63 | 269 | 7.0 | 17.0 | 0.00 | 0.00 | 0.00 | 52 | 1010.0 |
| 20260506004709 | 63 | 283 | 9.0 | 17.0 | 0.00 | 0.00 | 0.00 | 52 | 1010.0 |
| 20260506003709 | 63 | 256 | 5.0 | 13.0 | 0.00 | 0.00 | 0.00 | 51 | 1009.9 |
| 20260506002709 | 63 | 241 | 11.0 | 17.0 | 0.00 | 0.00 | 0.00 | 52 | 1009.9 |
| 20260506002209 | 62 | 234 | 4.0 | 15.0 | 0.00 | 0.00 | 0.00 | 53 | 1009.9 |
| 20260506001709 | 62 | 271 | 6.0 | 10.0 | 0.00 | 0.00 | 0.00 | 53 | 1009.9 |
| 20260506001209 | 62 | 240 | 3.0 | 10.0 | 0.00 | 0.00 | 0.00 | 53 | 1009.9 |
| 20260506000709 | 62 | 212 | 3.0 | 8.0 | 0.00 | 0.00 | 0.00 | 53 | 1009.9 |
| 20260506000211 | 62 | 275 | 3.0 | 8.0 | 0.00 | 0.00 | 0.00 | 52 | 1009.8 |
| 20260505235710 | 63 | 253 | 4.0 | 8.0 | 0.00 | 0.00 | 0.00 | 51 | 1009.7 |
| 20260505235210 | 63 | 263 | 2.0 | 8.0 | 0.00 | 0.00 | 0.00 | 51 | 1009.7 |
| 20260505234709 | 63 | 257 | 4.0 | 11.0 | 0.00 | 0.00 | 0.00 | 50 | 1009.5 |
| 20260505234210 | 64 | 269 | 6.0 | 12.0 | 0.00 | 0.00 | 0.00 | 50 | 1009.4 |
| 20260505233709 | 64 | 228 | 2.0 | 14.0 | 0.00 | 0.00 | 0.00 | 49 | 1009.3 |
| 20260505233210 | 64 | 244 | 5.0 | 13.0 | 0.00 | 0.00 | 0.00 | 49 | 1009.2 |
| 20260505232710 | 64 | 163 | 2.0 | 17.0 | 0.00 | 0.00 | 0.00 | 49 | 1009.2 |
| 20260505232210 | 65 | 234 | 6.0 | 17.0 | 0.00 | 0.00 | 0.00 | 48 | 1009.3 |
| 20260505231210 | 65 | 249 | 4.0 | 22.0 | 0.00 | 0.00 | 0.00 | 47 | 1008.8 |
| 20260505230712 | 66 | 165 | 18.0 | 22.0 | 0.00 | 0.00 | 0.00 | 47 | 1008.8 |
| 20260505230212 | 66 | 191 | 11.0 | 22.0 | 0.00 | 0.00 | 0.00 | 47 | 1008.7 |
| 20260505225710 | 66 | 210 | 12.0 | 24.0 | 0.00 | 0.00 | 0.00 | 46 | 1008.6 |
| 20260505225210 | 67 | 191 | 7.0 | 27.0 | 0.00 | 0.00 | 0.00 | 46 | 1008.5 |
| 20260505224210 | 67 | 213 | 12.0 | 26.0 | 0.00 | 0.00 | 0.00 | 46 | 1008.4 |
| 20260505223211 | 67 | 190 | 12.0 | 23.0 | 0.00 | 0.00 | 0.00 | 46 | 1008.4 |
| 20260505222711 | 67 | 202 | 14.0 | 21.0 | 0.00 | 0.00 | 0.00 | 46 | 1008.5 |
| 20260505222210 | 67 | 242 | 10.0 | 22.0 | 0.00 | 0.00 | 0.00 | 46 | 1008.5 |
| 20260505221710 | 67 | 200 | 6.0 | 25.0 | 0.00 | 0.00 | 0.00 | 46 | 1008.5 |
| 20260505221209 | 67 | 217 | 14.0 | 24.0 | 0.00 | 0.00 | 0.00 | 46 | 1008.4 |
| 20260505220711 | 67 | 192 | 7.0 | 17.0 | 0.00 | 0.00 | 0.00 | 46 | 1008.4 |
| 20260505220213 | 67 | 202 | 10.0 | 16.0 | 0.00 | 0.00 | 0.00 | 47 | 1008.4 |
| 20260505215711 | 67 | 248 | 12.0 | 14.0 | 0.00 | 0.00 | 0.00 | 47 | 1008.4 |
| 20260505215210 | 67 | 185 | 4.0 | 13.0 | 0.00 | 0.00 | 0.00 | 47 | 1008.4 |
| 20260505214711 | 67 | 221 | 4.0 | 15.0 | 0.00 | 0.00 | 0.00 | 47 | 1008.4 |
| 20260505214211 | 67 | 169 | 2.0 | 15.0 | 0.00 | 0.00 | 0.00 | 47 | 1008.2 |
| 20260505213711 | 67 | 172 | 3.0 | 16.0 | 0.00 | 0.00 | 0.00 | 47 | 1008.4 |
| 20260505213209 | 67 | 205 | 10.0 | 18.0 | 0.00 | 0.00 | 0.00 | 47 | 1008.3 |
| 20260505212710 | 67 | 166 | 17.0 | 17.0 | 0.00 | 0.00 | 0.00 | 46 | 1008.4 |
| 20260505212210 | 68 | 182 | 16.0 | 17.0 | 0.00 | 0.00 | 0.00 | 46 | 1008.4 |
| 20260505211710 | 68 | 271 | 1.0 | 15.0 | 0.00 | 0.00 | 0.00 | 45 | 1008.4 |
| 20260505211210 | 69 | 247 | 3.0 | 12.0 | 0.00 | 0.00 | 0.00 | 46 | 1008.4 |
| 20260505210209 | 70 | 180 | 3.0 | 14.0 | 0.00 | 0.00 | 0.00 | 44 | 1008.4 |
| 20260505205710 | 70 | 207 | 1.0 | 12.0 | 0.00 | 0.00 | 0.00 | 44 | 1008.3 |
| 20260505205208 | 70 | 211 | 5.0 | 17.0 | 0.00 | 0.00 | 0.00 | 44 | 1008.4 |
| 20260505204709 | 70 | 239 | 4.0 | 17.0 | 0.00 | 0.00 | 0.00 | 44 | 1008.4 |
| 20260505204209 | 71 | 197 | 6.0 | 12.0 | 0.00 | 0.00 | 0.00 | 43 | 1008.5 |
| 20260505203709 | 71 | 248 | 7.0 | 12.0 | 0.00 | 0.00 | 0.00 | 43 | 1008.5 |
| 20260505203209 | 72 | 158 | 7.0 | 11.0 | 0.00 | 0.00 | 0.00 | 44 | 1008.6 |
| 20260505202709 | 72 | 222 | 4.0 | 11.0 | 0.00 | 0.00 | 0.00 | 43 | 1008.5 |
| 20260505202209 | 72 | 209 | 9.0 | 11.0 | 0.00 | 0.00 | 0.00 | 43 | 1008.6 |
| 20260505201709 | 72 | 236 | 4.0 | 14.0 | 0.00 | 0.00 | 0.00 | 44 | 1008.7 |
| 20260505201209 | 72 | 162 | 4.0 | 14.0 | 0.00 | 0.00 | 0.00 | 43 | 1008.7 |
| 20260505200710 | 71 | 238 | 4.0 | 10.0 | 0.00 | 0.00 | 0.00 | 44 | 1008.8 |
| 20260505200209 | 71 | 229 | 4.0 | 10.0 | 0.00 | 0.00 | 0.00 | 45 | 1008.8 |
| 20260505195709 | 70 | 242 | 6.0 | 16.0 | 0.00 | 0.00 | 0.00 | 45 | 1009.0 |
| 20260505195209 | 70 | 198 | 8.0 | 16.0 | 0.00 | 0.00 | 0.00 | 45 | 1008.9 |
| 20260505194709 | 70 | 207 | 13.0 | 13.0 | 0.00 | 0.00 | 0.00 | 45 | 1009.0 |
| 20260505194209 | 70 | 183 | 3.0 | 14.0 | 0.00 | 0.00 | 0.00 | 44 | 1009.1 |
| 20260505193709 | 70 | 202 | 5.0 | 15.0 | 0.00 | 0.00 | 0.00 | 44 | 1009.1 |
| 20260505193209 | 71 | 234 | 6.0 | 15.0 | 0.00 | 0.00 | 0.00 | 43 | 1009.3 |
| 20260505192709 | 71 | 240 | 2.0 | 11.0 | 0.00 | 0.00 | 0.00 | 46 | 1009.2 |
| 20260505192209 | 70 | 218 | 4.0 | 15.0 | 0.00 | 0.00 | 0.00 | 46 | 1009.1 |
| 20260505191709 | 70 | 263 | 3.0 | 15.0 | 0.00 | 0.00 | 0.00 | 45 | 1009.2 |
| 20260505191208 | 70 | 191 | 8.0 | 14.0 | 0.00 | 0.00 | 0.00 | 46 | 1009.3 |
| 20260505190709 | 71 | 175 | 8.0 | 14.0 | 0.00 | 0.00 | 0.00 | 45 | 1009.5 |
| 20260505190208 | 71 | 207 | 4.0 | 13.0 | 0.00 | 0.00 | 0.00 | 46 | 1009.5 |
| 20260505185709 | 71 | 187 | 7.0 | 14.0 | 0.00 | 0.00 | 0.00 | 44 | 1009.6 |
| 20260505185209 | 71 | 161 | 6.0 | 16.0 | 0.00 | 0.00 | 0.00 | 44 | 1009.6 |
| 20260505184708 | 71 | 209 | 6.0 | 16.0 | 0.00 | 0.00 | 0.00 | 45 | 1009.7 |
| 20260505183710 | 71 | 317 | 1.0 | 14.0 | 0.00 | 0.00 | 0.00 | 44 | 1009.8 |
| 20260505183208 | 71 | 185 | 4.0 | 14.0 | 0.00 | 0.00 | 0.00 | 45 | 1009.8 |
| 20260505182708 | 72 | 157 | 5.0 | 13.0 | 0.00 | 0.00 | 0.00 | 44 | 1009.8 |
| 20260505182208 | 72 | 186 | 6.0 | 13.0 | 0.00 | 0.00 | 0.00 | 45 | 1009.7 |
| 20260505181710 | 72 | 218 | 3.0 | 12.0 | 0.00 | 0.00 | 0.00 | 45 | 1009.7 |
| 20260505180709 | 72 | 202 | 2.0 | 16.0 | 0.00 | 0.00 | 0.00 | 44 | 1009.8 |
| 20260505180208 | 72 | 196 | 8.0 | 16.0 | 0.00 | 0.00 | 0.00 | 44 | 1010.0 |
| 20260505175709 | 72 | 188 | 3.0 | 15.0 | 0.00 | 0.00 | 0.00 | 43 | 1010.0 |
| 20260505175209 | 73 | 206 | 6.0 | 15.0 | 0.00 | 0.00 | 0.00 | 44 | 1010.0 |
| 20260505174209 | 75 | 165 | 5.0 | 13.0 | 0.00 | 0.00 | 0.00 | 41 | 1010.2 |
| 20260505173709 | 75 | 172 | 2.0 | 10.0 | 0.00 | 0.00 | 0.00 | 43 | 1010.2 |
| 20260505173209 | 75 | 215 | 4.0 | 9.0 | 0.00 | 0.00 | 0.00 | 40 | 1010.2 |
| 20260505172709 | 75 | 144 | 2.0 | 10.0 | 0.00 | 0.00 | 0.00 | 42 | 1010.3 |
| 20260505171709 | 75 | 183 | 4.0 | 10.0 | 0.00 | 0.00 | 0.00 | 39 | 1010.3 |
| 20260505171209 | 75 | 161 | 5.0 | 11.0 | 0.00 | 0.00 | 0.00 | 40 | 1010.3 |
| 20260505170708 | 75 | 168 | 1.0 | 11.0 | 0.00 | 0.00 | 0.00 | 40 | 1010.4 |
| 20260505170210 | 75 | 197 | 3.0 | 9.0 | 0.00 | 0.00 | 0.00 | 39 | 1010.5 |
| 20260505165709 | 75 | 221 | 6.0 | 9.0 | 0.00 | 0.00 | 0.00 | 39 | 1010.6 |
| 20260505165209 | 74 | 198 | 5.0 | 10.0 | 0.00 | 0.00 | 0.00 | 42 | 1010.6 |
| 20260505164209 | 73 | 230 | 6.0 | 10.0 | 0.00 | 0.00 | 0.00 | 42 | 1010.9 |
| 20260505163708 | 73 | 198 | 4.0 | 9.0 | 0.00 | 0.00 | 0.00 | 44 | 1010.9 |
| 20260505163209 | 72 | 180 | 1.0 | 9.0 | 0.00 | 0.00 | 0.00 | 45 | 1010.9 |
| 20260505162709 | 71 | 225 | 6.0 | 9.0 | 0.00 | 0.00 | 0.00 | 48 | 1011.0 |
| 20260505162209 | 70 | 197 | 5.0 | 6.0 | 0.00 | 0.00 | 0.00 | 48 | 1011.0 |
| 20260505161710 | 70 | 144 | 1.0 | 6.0 | 0.00 | 0.00 | 0.00 | 49 | 1011.0 |
| 20260505160709 | 70 | 198 | 2.0 | 7.0 | 0.00 | 0.00 | 0.00 | 49 | 1011.1 |
| 20260505160211 | 70 | 153 | 3.0 | 8.0 | 0.00 | 0.00 | 0.00 | 49 | 1011.3 |
| 20260505153209 | 70 | 243 | 6.0 | 9.0 | 0.00 | 0.00 | 0.00 | 49 | 1011.6 |
| 20260505152709 | 70 | 165 | 1.0 | 9.0 | 0.00 | 0.00 | 0.00 | 48 | 1011.6 |
| 20260505152209 | 69 | 175 | 0.0 | 8.0 | 0.00 | 0.00 | 0.00 | 49 | 1011.8 |
| 20260505151709 | 70 | 171 | 1.0 | 8.0 | 0.00 | 0.00 | 0.00 | 47 | 1011.6 |
| 20260505140211 | 64 | 12 | 3.0 | 5.0 | 0.00 | 0.00 | 0.00 | 52 | 1012.0 |
| 20260505130209 | 60 | 125 | 0.0 | 4.0 | 0.00 | 0.00 | 0.00 | 54 | 1011.9 |
| 20260505124708 | 60 | 178 | 1.0 | 5.0 | 0.00 | 0.00 | 0.00 | 53 | 1011.7 |
| 20260505124207 | 59 | 200 | 1.0 | 5.0 | 0.00 | 0.00 | 0.00 | 53 | 1011.7 |
| 20260505123707 | 59 | 169 | 5.0 | 5.0 | 0.00 | 0.00 | 0.00 | 53 | 1011.7 |
| 20260505123209 | 58 | 196 | 0.0 | 3.0 | 0.00 | 0.00 | 0.00 | 54 | 1011.7 |
| 20260505122707 | 57 | 88 | 0.0 | 1.0 | 0.00 | 0.00 | 0.00 | 54 | 1012.0 |
| 20260505122208 | 56 | 88 | 0.0 | 6.0 | 0.00 | 0.00 | 0.00 | 54 | 1011.8 |
| 20260505121708 | 56 | 88 | 2.0 | 6.0 | 0.00 | 0.00 | 0.00 | 54 | 1011.8 |
| 20260505121208 | 56 | 250 | 0.0 | 4.0 | 0.00 | 0.00 | 0.00 | 54 | 1011.9 |
| 20260505120708 | 56 | 250 | 1.0 | 4.0 | 0.00 | 0.00 | 0.00 | 54 | 1011.9 |
| 20260505120211 | 56 | 234 | 1.0 | 3.0 | 0.00 | 0.00 | 0.00 | 55 | 1011.7 |
| 20260505115708 | 56 | 234 | 0.0 | 2.0 | 0.00 | 0.00 | 0.00 | 55 | 1011.7 |
| 20260505115208 | 55 | 234 | 0.0 | 3.0 | 0.00 | 0.00 | 0.00 | 56 | 1011.7 |
| 20260505114709 | 55 | 234 | 1.0 | 5.0 | 0.00 | 0.00 | 0.00 | 57 | 1011.8 |
| 20260505113210 | 55 | 225 | 3.0 | 7.0 | 0.00 | 0.00 | 0.00 | 62 | 1011.9 |
| 20260505112209 | 54 | 233 | 2.0 | 5.0 | 0.00 | 0.00 | 0.00 | 63 | 1011.9 |
| 20260505111709 | 54 | 252 | 2.0 | 6.0 | 0.00 | 0.00 | 0.00 | 63 | 1011.8 |
| 20260505111209 | 53 | 223 | 3.0 | 6.0 | 0.00 | 0.00 | 0.00 | 63 | 1011.9 |
| 20260505110708 | 53 | 192 | 4.0 | 6.0 | 0.00 | 0.00 | 0.00 | 63 | 1012.0 |
| 20260505110208 | 52 | 269 | 1.0 | 5.0 | 0.00 | 0.00 | 0.00 | 63 | 1011.9 |
| 20260505102207 | 49 | 233 | 0.0 | 0.0 | 0.00 | 0.00 | 0.00 | 60 | 1011.2 |
| 20260505101708 | 49 | 233 | 0.0 | 0.0 | 0.00 | 0.00 | 0.00 | 59 | 1011.2 |
| 20260505101207 | 49 | 233 | 0.0 | 0.0 | 0.00 | 0.00 | 0.00 | 59 | 1011.2 |
| 20260505100707 | 49 | 233 | 0.0 | 0.0 | 0.00 | 0.00 | 0.00 | 59 | 1011.1 |
| 20260505100208 | 49 | 233 | 0.0 | 0.0 | 0.00 | 0.00 | 0.00 | 58 | 1011.1 |
| 20260505095708 | 49 | 232 | 0.0 | 0.0 | 0.00 | 0.00 | 0.00 | 58 | 1011.0 |
| 20260505095207 | 49 | 232 | 0.0 | 0.0 | 0.00 | 0.00 | 0.00 | 58 | 1010.9 |
| 20260505094708 | 49 | 232 | 0.0 | 0.0 | 0.00 | 0.00 | 0.00 | 58 | 1010.9 |
| 20260505093707 | 49 | 232 | 0.0 | 0.0 | 0.00 | 0.00 | 0.00 | 58 | 1010.9 |
| 20260505093208 | 49 | 232 | 0.0 | 0.0 | 0.00 | 0.00 | 0.00 | 58 | 1010.9 |
| 20260505092707 | 49 | 232 | 0.0 | 0.0 | 0.00 | 0.00 | 0.00 | 58 | 1011.0 |
| 20260505092207 | 49 | 232 | 0.0 | 0.0 | 0.00 | 0.00 | 0.00 | 58 | 1010.9 |
| 20260505091707 | 49 | 232 | 0.0 | 0.0 | 0.00 | 0.00 | 0.00 | 58 | 1010.8 |
| 20260505091207 | 49 | 232 | 0.0 | 0.0 | 0.00 | 0.00 | 0.00 | 58 | 1010.9 |
| 20260505090707 | 49 | 232 | 0.0 | 0.0 | 0.00 | 0.00 | 0.00 | 58 | 1011.1 |
| 20260505090208 | 49 | 232 | 0.0 | 0.0 | 0.00 | 0.00 | 0.00 | 58 | 1011.1 |
| 20260505085707 | 49 | 232 | 0.0 | 0.0 | 0.00 | 0.00 | 0.00 | 57 | 1010.9 |
| 20260505085207 | 49 | 233 | 0.0 | 0.0 | 0.00 | 0.00 | 0.00 | 58 | 1010.8 |
| 20260505084708 | 49 | 233 | 0.0 | 0.0 | 0.00 | 0.00 | 0.00 | 58 | 1010.8 |
| 20260505084208 | 49 | 233 | 0.0 | 0.0 | 0.00 | 0.00 | 0.00 | 57 | 1010.8 |
| 20260505082708 | 50 | 233 | 0.0 | 2.0 | 0.00 | 0.00 | 0.00 | 57 | 1010.9 |
| 20260505082207 | 50 | 233 | 1.0 | 2.0 | 0.00 | 0.00 | 0.00 | 57 | 1010.9 |
| 20260505081708 | 50 | 229 | 0.0 | 0.0 | 0.00 | 0.00 | 0.00 | 57 | 1010.9 |
| 20260505080707 | 50 | 229 | 0.0 | 2.0 | 0.00 | 0.00 | 0.00 | 57 | 1010.9 |